Satellite: MAST
Catalog number: 31126
Epoch time:      08016.68225489
Element set:     232
Inclination:      098.0607 deg
RA of node:       087.0763 deg
Eccentricity:    0.0095780
Arg of perigee:   084.6680 deg
Mean anomaly:     276.5436 deg
Mean motion:   14.53393131 rev/day
Decay rate:        6.5e-07 rev/day^2
Epoch rev:            3986
Checksum:              314

Satellite: CAPE1
Catalog number: 31130
Epoch time:      08017.71980727
Element set:     213
Inclination:      098.0617 deg
RA of node:       087.4337 deg
Eccentricity:    0.0104186
Arg of perigee:   083.4934 deg
Mean anomaly:     277.8110 deg
Mean motion:   14.51922048 rev/day
Decay rate:      -1.29e-06 rev/day^2
Epoch rev:            3974
Checksum:              293

/EX



_______________________________________________
Via the Keps mailing list courtesy of AMSAT-NA
http://amsat.org/mailman/listinfo/keps

--- ViaMAIL!/WC v1.60d
 * Origin: Chowdanet (401-724-4410) telnet://chowdanet.com  (1:323/120)